Wind_Speed
21 20 22 23 22 19 18 19 21 20 21 20 19 18 17 18 18 18 17 17 17 17 16 16 17 16 16 16 17 17 17 17 18 18 17 16 16 15 13 13 12 12 12
24 23 24 24 22 21 20 19 21 22 22 21 21 20 19 19 19 19 19 19 19 19 19 19 19 19 18 18 19 19 19 20 20 21 20 19 18 16 15 15 14 14 14
25 25 25 23 20 19 19 19 20 21 21 21 21 22 22 22 22 21 21 21 22 21 21 21 21 21 21 21 22 22 22 22 23 24 23 21 19 17 16 16 15 15 15
24 25 23 19 17 17 19 20 21 22 21 21 22 24 24 24 24 24 24 23 23 23 23 23 24 24 24 25 26 26 26 26 26 27 26 23 19 19 18 18 17 17 16
20 20 19 17 16 17 18 19 20 21 21 22 24 26 27 26 25 25 25 26 26 26 26 26 28 29 28 29 30 30 29 29 30 30 29 27 23 22 19 19 19 18 17
13 13 14 15 15 14 14 15 16 18 20 23 25 27 28 29 28 27 28 29 30 31 31 31 32 34 34 35 36 36 34 34 35 35 33 30 28 26 23 22 20 19 19
11 11 12 12 12 11 12 14 15 17 20 24 26 28 29 30 30 30 31 32 33 34 32 31 31 34 34 35 36 36 38 40 41 40 38 34 33 30 27 25 22 23 23
13 13 12 11 11 11 13 15 17 18 21 23 25 28 29 32 32 31 32 32 32 32 31 30 28 29 29 27 27 27 28 31 35 41 41 38 37 34 31 29 27 28 28
12 13 12 12 12 14 16 18 20 21 22 24 25 27 27 27 27 28 29 30 31 32 32 31 29 30 29 30 29 30 30 29 29 30 33 36 38 34 33 32 32 32 31
14 12 13 14 14 16 18 20 22 25 26 27 27 28 29 30 29 28 29 30 31 31 31 30 30 30 31 32 32 34 34 34 35 35 32 31 31 29 31 33 33 33 34
17 16 18 16 14 16 18 20 22 25 27 28 28 29 29 30 29 29 28 28 28 28 29 30 30 30 31 31 32 33 34 35 36 37 37 35 33 31 32 34 34 35 37
19 21 20 20 20 19 21 22 24 26 28 30 30 30 30 30 29 28 26 26 26 27 29 30 32 33 33 33 33 34 35 35 35 36 36 36 37 37 37 38 38 38 39
20 23 22 21 22 22 24 25 27 28 31 33 33 33 31 31 30 29 28 28 28 30 31 33 34 35 36 37 37 37 38 39 39 39 38 38 39 39 40 42 42 43 43
24 25 24 23 25 27 28 28 30 31 32 34 35 35 34 34 33 33 33 33 33 32 32 33 34 35 37 39 40 41 42 43 43 42 42 41 41 42 43 44 45 47 48
26 27 26 26 28 30 31 31 32 34 35 35 36 36 36 36 36 35 36 36 36 35 35 36 38 39 41 43 44 45 46 47 47 47 46 47 46 47 47 47 47 47 48
27 28 27 27 28 29 30 30 31 34 36 38 39 39 38 38 38 37 36 36 38 40 41 42 44 46 48 48 48 49 49 49 51 53 54 54 55 54 54 53 53 53 53
31 30 30 28 27 29 31 32 32 34 35 37 38 38 39 40 40 38 37 38 39 42 44 47 50 53 54 54 54 54 54 54 55 56 56 56 57 58 58 58 58 58 59
35 34 32 26 25 29 33 35 36 36 37 38 36 36 39 42 43 42 40 41 43 46 49 51 53 55 56 55 55 55 57 60 62 62 62 61 61 61 62 62 62 60 59
34 36 29 20 27 31 34 35 34 34 36 37 36 37 42 46 47 44 43 45 48 51 52 54 55 57 57 57 58 60 62 64 65 66 67 68 69 70 70 70 71 70 67
38 38 34 41 42 40 40 39 37 36 37 37 38 43 46 45 45 45 46 48 52 53 53 55 57 58 60 62 64 66 67 68 69 71 72 73 74 76 77 78 78 78 77
43 46 49 51 49 48 46 44 42 42 43 44 45 49 49 46 45 47 48 51 55 56 57 59 61 63 65 67 68 70 70 72 73 74 76 77 78 77 78 78 78 78 79
44 48 51 52 52 52 50 48 47 48 48 50 51 51 49 47 48 53 55 57 58 59 61 64 66 68 69 70 73 76 77 76 76 77 77 76 74 72 70 70 71 72 74
43 47 50 52 53 52 52 51 51 52 53 54 53 53 50 49 58 61 59 60 62 63 66 69 72 74 74 75 78 81 83 82 79 76 73 69 66 63 62 62 63 64 64
43 45 47 48 50 51 51 52 53 54 55 56 56 57 58 64 67 67 69 71 73 74 75 77 79 80 81 82 82 84 84 81 76 71 63 60 59 59 60 61 61 62 61
42 43 44 46 47 48 48 49 50 52 53 55 56 58 62 66 70 73 76 79 81 83 85 86 86 86 86 85 84 80 75 68 62 59 54 51 52 53 54 56 58 59 59
40 41 42 43 43 43 44 46 48 50 52 55 58 61 65 68 72 76 80 83 86 88 90 90 89 86 83 79 72 65 58 53 50 49 48 46 45 45 45 47 49 51 53
Wind_Direction
286 285 285 286 292 292 285 273 262 257 253 254 256 258 259 260 260 257 254 252 253 255 257 260 264 266 266 266 266 264 262 260 258 257 256 256 258 261 261 260 264 266 267
287 287 286 286 288 288 280 266 257 253 253 255 259 263 264 262 260 258 255 253 253 254 255 257 261 262 260 260 258 257 257 257 256 255 254 253 255 256 257 258 258 256 259
287 285 285 282 280 283 278 264 254 249 250 255 261 265 265 262 257 256 254 252 252 252 252 253 256 257 256 256 255 253 252 252 254 254 254 254 256 255 256 258 260 259 259
282 280 280 274 274 281 280 269 258 254 255 259 264 266 263 260 257 255 253 251 252 252 253 255 257 255 254 255 254 251 250 250 253 255 254 253 254 255 254 257 258 259 261
281 276 273 268 271 279 281 274 264 262 261 263 266 268 264 259 257 257 256 255 255 254 255 257 261 260 257 254 252 250 249 250 251 252 253 251 246 250 249 252 254 255 259
282 276 273 273 277 279 285 285 276 268 264 263 263 264 263 259 258 260 261 261 261 259 259 260 262 263 260 256 252 249 247 249 250 249 249 248 245 248 248 248 251 253 254
291 284 278 281 284 282 284 287 283 277 269 267 266 266 265 261 258 258 261 264 266 266 266 267 268 267 266 261 257 255 252 250 250 249 248 245 245 247 248 250 252 257 259
300 291 280 281 283 283 282 287 288 285 282 279 276 272 271 266 262 262 266 271 275 278 279 280 282 281 282 282 276 274 272 265 261 254 250 245 242 243 246 252 257 261 263
304 304 295 289 285 284 283 286 288 291 292 291 290 292 290 287 282 282 285 286 286 287 291 294 292 293 295 292 290 288 286 285 280 273 264 253 244 244 249 255 261 264 266
311 310 295 298 298 294 292 291 292 294 294 294 294 294 296 295 295 295 296 297 294 292 293 295 295 295 293 290 289 289 289 290 290 291 284 273 261 257 259 259 262 267 269
301 291 294 293 292 292 294 295 296 296 296 296 296 295 294 294 294 293 294 294 294 294 294 294 294 292 290 289 289 289 290 290 290 290 289 285 279 275 273 269 267 267 269
296 297 299 296 293 293 294 295 295 296 296 297 298 298 298 298 298 296 294 292 292 292 292 292 293 292 291 290 289 289 289 288 287 286 285 282 280 278 275 272 270 269 268
292 296 295 294 293 292 291 292 293 294 296 298 300 301 302 301 299 297 294 293 292 292 293 294 294 292 291 291 289 287 286 285 283 282 280 279 276 273 271 269 267 267 266
290 291 292 294 293 292 291 291 291 292 292 294 294 295 296 296 297 298 298 298 297 297 296 293 291 290 289 289 289 288 286 285 283 282 281 280 279 276 273 271 270 269 268
291 289 290 291 290 291 292 292 292 293 292 292 291 290 291 291 293 296 299 300 299 297 295 293 292 289 288 288 287 285 283 283 282 281 280 278 277 276 275 274 272 271 271
294 291 292 294 297 300 302 300 298 297 295 293 290 289 290 291 292 294 295 296 295 295 294 293 292 291 291 291 290 290 288 286 285 285 285 284 281 278 276 275 274 273 271
296 294 293 294 300 306 308 307 305 303 304 301 293 290 291 292 291 289 289 289 290 291 292 294 295 295 295 295 295 296 295 293 292 292 292 291 290 287 284 280 277 275 273
296 295 284 283 300 308 309 309 308 308 309 305 298 293 292 291 288 286 286 288 291 294 294 294 294 294 293 293 294 295 295 296 296 296 294 293 291 290 288 285 282 278 274
292 288 271 281 312 314 312 309 309 306 309 306 298 295 293 288 283 281 283 287 291 294 294 293 294 294 294 293 292 292 293 293 292 292 291 290 289 288 286 284 283 281 277
300 296 294 309 319 319 315 311 309 305 305 304 298 298 295 290 281 276 279 284 289 292 292 292 292 292 291 291 291 291 291 291 290 290 289 289 288 287 285 284 282 280 279
302 302 304 310 314 313 311 309 307 305 303 301 298 298 294 287 282 283 286 291 293 292 291 290 290 290 290 291 291 290 290 290 291 291 290 289 288 287 286 284 281 279 277
297 299 302 305 305 306 306 306 306 305 303 302 300 300 295 290 291 295 294 293 291 290 289 290 290 289 289 289 290 291 291 290 291 290 289 288 287 286 285 283 281 279 277
289 292 296 298 300 302 303 304 304 302 301 301 302 301 297 292 297 299 296 294 292 292 292 292 291 291 291 290 292 294 294 294 291 288 286 284 282 281 281 280 279 278 277
287 290 293 295 298 300 301 300 300 300 300 301 300 299 296 296 298 298 298 298 298 298 297 296 295 295 294 294 293 294 294 293 292 287 284 281 280 279 279 278 276 274 273
290 292 294 295 296 297 298 299 300 300 299 299 298 297 297 297 298 298 298 298 298 298 297 295 294 293 293 293 293 293 292 290 288 287 285 282 282 282 281 279 275 272 270
294 295 296 297 298 299 300 300 299 299 298 297 296 296 296 296 296 296 296 296 296 296 295 293 292 292 292 292 292 291 289 287 286 285 286 286 286 286 285 282 279 274 269
Height
5899 5899 5899 5899 5899 5899 5899 5899 5898 5899 5899 5900 5900 5901 5900 5900 5900 5900 5900 5900 5899 5899 5898 5898 5898 5898 5898 5898 5898 5898 5897 5897 5896 5896 5896 5896 5896 5896 5896 5896 5896 5897 5897
5897 5896 5895 5895 5894 5894 5894 5894 5894 5895 5895 5896 5897 5897 5897 5897 5898 5897 5897 5897 5897 5896 5896 5896 5896 5896 5896 5896 5896 5895 5894 5894 5893 5892 5892 5892 5892 5892 5892 5893 5893 5893 5894
5893 5892 5891 5890 5890 5890 5890 5890 5890 5890 5891 5892 5893 5894 5894 5894 5894 5894 5894 5893 5893 5893 5893 5893 5893 5893 5893 5893 5892 5892 5891 5890 5890 5889 5889 5889 5889 5889 5889 5890 5891 5891 5891
5889 5887 5887 5887 5887 5887 5887 5887 5887 5888 5888 5889 5890 5890 5890 5890 5890 5890 5890 5889 5889 5890 5890 5890 5889 5889 5889 5889 5889 5888 5887 5887 5886 5885 5885 5887 5887 5885 5885 5886 5887 5888 5888
5885 5883 5883 5884 5884 5884 5884 5884 5885 5885 5886 5886 5887 5887 5887 5887 5886 5886 5886 5886 5886 5886 5886 5885 5885 5885 5884 5884 5884 5883 5882 5881 5881 5880 5880 5882 5882 5879 5880 5881 5882 5882 5883
5882 5881 5881 5881 5881 5881 5881 5881 5881 5882 5882 5883 5883 5883 5883 5883 5883 5883 5883 5882 5882 5881 5881 5880 5880 5879 5878 5877 5877 5876 5875 5875 5874 5874 5874 5875 5875 5874 5874 5875 5876 5876 5877
5880 5879 5879 5879 5879 5879 5879 5879 5879 5879 5879 5879 5879 5878 5878 5879 5879 5878 5877 5877 5877 5876 5875 5874 5873 5873 5872 5871 5870 5869 5868 5867 5867 5867 5867 5869 5867 5868 5869 5869 5870 5871 5872
5880 5878 5878 5877 5877 5877 5877 5877 5877 5877 5877 5876 5875 5875 5874 5874 5874 5873 5872 5872 5871 5870 5869 5868 5867 5866 5865 5864 5863 5862 5861 5861 5861 5861 5861 5862 5860 5861 5862 5862 5863 5865 5866
5879 5877 5876 5875 5875 5875 5875 5874 5874 5874 5873 5872 5871 5870 5870 5869 5869 5868 5867 5867 5865 5865 5863 5862 5861 5860 5859 5858 5858 5857 5856 5855 5854 5853 5855 5855 5853 5854 5855 5856 5857 5858 5859
5876 5874 5872 5872 5873 5872 5872 5871 5871 5870 5869 5868 5867 5866 5866 5865 5865 5864 5863 5862 5860 5859 5858 5857 5856 5855 5855 5854 5853 5853 5852 5851 5849 5848 5848 5848 5848 5849 5850 5850 5850 5851 5852
5873 5873 5871 5872 5872 5871 5870 5869 5868 5867 5865 5864 5863 5862 5860 5860 5859 5858 5858 5857 5855 5855 5854 5853 5852 5851 5850 5850 5849 5848 5847 5845 5844 5843 5843 5843 5843 5843 5843 5843 5843 5844 5845
5870 5870 5870 5869 5868 5868 5867 5866 5865 5864 5862 5861 5859 5858 5856 5855 5855 5854 5853 5851 5850 5849 5848 5846 5845 5844 5843 5843 5842 5841 5840 5839 5839 5838 5838 5837 5838 5837 5837 5837 5836 5836 5837
5867 5867 5868 5868 5866 5865 5864 5862 5861 5860 5858 5856 5854 5853 5852 5850 5849 5848 5847 5846 5844 5843 5842 5840 5839 5838 5837 5836 5834 5834 5833 5832 5831 5831 5831 5830 5829 5829 5829 5829 5828 5828 5828
5867 5866 5865 5866 5864 5862 5860 5858 5855 5854 5853 5851 5849 5848 5846 5845 5843 5842 5841 5840 5838 5837 5835 5834 5833 5832 5830 5829 5827 5826 5825 5824 5823 5823 5822 5822 5820 5820 5819 5819 5819 5818 5818
5865 5863 5862 5862 5860 5857 5855 5854 5852 5849 5847 5846 5844 5842 5840 5839 5837 5835 5833 5831 5830 5829 5828 5826 5824 5822 5821 5820 5818 5817 5816 5814 5813 5812 5812 5812 5812 5811 5809 5809 5808 5808 5808
5862 5860 5859 5857 5855 5853 5851 5850 5847 5844 5841 5839 5838 5836 5835 5833 5831 5829 5826 5824 5822 5820 5818 5817 5815 5812 5810 5808 5807 5805 5804 5803 5802 5800 5799 5799 5799 5799 5798 5797 5797 5796 5796
5856 5854 5853 5852 5851 5849 5848 5846 5843 5840 5836 5833 5831 5829 5828 5826 5824 5822 5820 5818 5816 5814 5811 5807 5804 5801 5798 5795 5792 5790 5788 5787 5786 5784 5783 5783 5782 5781 5782 5782 5783 5782 5782
5846 5844 5842 5845 5846 5844 5843 5841 5838 5835 5832 5828 5825 5823 5821 5819 5816 5814 5811 5809 5807 5804 5801 5797 5794 5790 5787 5783 5780 5777 5774 5772 5770 5767 5766 5765 5764 5764 5762 5761 5762 5764 5765
5838 5833 5829 5836 5839 5838 5837 5836 5833 5829 5826 5822 5818 5816 5814 5810 5807 5804 5802 5799 5797 5793 5789 5785 5780 5777 5774 5770 5767 5765 5762 5759 5757 5754 5751 5748 5746 5745 5743 5741 5740 5740 5743
5836 5829 5824 5827 5828 5829 5829 5828 5826 5823 5820 5815 5811 5808 5804 5799 5795 5793 5791 5789 5786 5783 5778 5773 5769 5765 5761 5757 5754 5752 5749 5746 5742 5739 5736 5732 5729 5725 5722 5720 5719 5718 5719
5835 5830 5824 5821 5820 5820 5820 5819 5817 5814 5810 5806 5802 5798 5792 5789 5786 5784 5781 5778 5774 5771 5766 5760 5756 5752 5748 5744 5739 5735 5733 5730 5726 5722 5717 5713 5709 5705 5701 5699 5697 5697 5697
5833 5826 5821 5818 5815 5813 5812 5809 5806 5803 5799 5795 5792 5787 5781 5777 5775 5773 5771 5767 5762 5759 5753 5747 5741 5736 5733 5729 5723 5716 5713 5713 5710 5704 5699 5694 5690 5685 5682 5678 5675 5674 5674
5832 5826 5821 5817 5813 5810 5806 5802 5798 5794 5789 5785 5781 5777 5772 5765 5762 5759 5755 5752 5748 5744 5739 5733 5726 5719 5715 5711 5705 5696 5690 5687 5685 5683 5679 5675 5670 5667 5664 5660 5657 5655 5655
5828 5824 5820 5815 5810 5805 5801 5796 5791 5786 5780 5776 5772 5768 5763 5756 5749 5744 5738 5732 5728 5724 5719 5713 5707 5700 5693 5689 5685 5678 5670 5663 5658 5656 5660 5655 5651 5649 5646 5643 5641 5639 5638
5822 5818 5814 5809 5804 5798 5793 5788 5783 5777 5772 5768 5763 5757 5751 5744 5736 5728 5720 5714 5709 5703 5697 5691 5685 5680 5673 5667 5662 5657 5651 5645 5639 5635 5639 5639 5635 5633 5629 5626 5623 5621 5620
5813 5810 5805 5800 5796 5791 5786 5780 5774 5769 5763 5758 5752 5746 5739 5731 5723 5714 5705 5698 5691 5683 5675 5667 5661 5656 5650 5645 5640 5635 5631 5628 5625 5622 5621 5621 5620 5618 5614 5610 5607 5605 5603